Temperature
13 13 13 13 13 13 13 13 13 13 13 13 13 13 13 13 12 12 12 12 12 12 12 12 11 11 10 10 10 10 10 10 10 10 10 9 9 9 9 9 9 9 8
12 12 12 13 13 13 13 13 13 13 13 13 13 12 12 12 12 12 12 12 12 12 12 11 11 11 10 10 10 10 10 10 10 10 9 9 9 9 9 9 9 8 8
11 11 12 12 12 12 12 12 12 12 12 12 12 12 12 12 12 12 12 12 12 12 12 11 11 11 10 10 10 10 10 10 10 9 9 9 9 9 9 9 9 8 8
10 10 10 11 11 11 11 11 12 12 12 12 11 12 12 12 11 11 11 11 11 11 11 11 11 11 10 10 10 10 10 10 10 9 9 9 9 9 9 9 8 8 8
9 9 10 10 10 10 10 10 11 11 11 11 11 11 11 11 11 11 11 11 11 11 11 11 11 11 10 10 10 10 10 10 10 9 9 9 9 9 9 8 8 8 8
9 9 9 9 9 10 10 10 10 10 10 10 10 10 11 11 11 11 10 10 11 11 11 11 10 10 10 10 10 10 10 10 10 9 9 9 9 9 9 8 8 8 8
8 8 8 9 9 9 9 9 9 9 10 10 9 9 10 10 10 10 10 10 10 10 10 10 10 10 10 10 10 10 10 10 9 9 9 9 9 9 8 8 8 8 8
8 8 8 8 8 8 8 9 9 9 9 9 9 9 9 9 10 10 10 10 10 10 10 10 10 10 10 10 10 10 10 10 9 9 9 9 9 9 8 8 8 8 8
7 8 8 8 8 8 8 8 9 8 8 8 9 9 9 10 10 9 10 10 10 10 10 10 10 10 10 10 10 10 10 10 9 9 9 9 9 8 8 8 8 8 7
7 7 7 7 8 8 8 8 8 8 8 8 8 9 9 10 10 9 9 9 10 10 10 10 10 10 10 10 10 10 10 9 9 9 9 9 8 8 8 8 8 8 7
6 7 7 7 7 7 8 8 8 8 8 8 8 8 9 9 10 10 9 9 9 9 9 9 10 10 10 10 10 10 10 9 9 9 9 9 8 8 8 8 8 7 7
6 6 6 7 7 7 7 7 7 8 8 8 8 8 8 9 9 10 10 9 9 9 9 10 10 10 10 10 10 10 9 9 9 9 9 8 8 8 8 8 7 7 7
5 6 6 6 7 7 7 7 7 7 7 8 8 8 8 8 9 10 10 9 9 9 9 10 10 10 10 10 10 10 9 9 9 9 8 8 8 8 8 8 7 7 7
5 6 6 6 6 7 7 7 7 7 7 7 7 8 8 8 9 9 10 10 9 9 9 9 10 10 10 10 9 9 9 9 9 9 8 8 8 8 8 7 7 7 6
5 5 5 6 6 6 7 7 6 7 7 7 7 7 7 8 8 9 9 10 9 9 9 9 10 10 10 9 9 9 9 9 9 8 8 8 8 8 7 7 7 6 6
4 5 5 5 6 6 6 6 6 6 6 7 7 7 7 7 8 8 9 9 9 9 9 9 10 10 10 9 9 9 9 9 9 8 8 8 8 7 7 7 6 6 6
4 4 5 5 5 6 6 6 6 6 6 6 7 7 7 7 7 8 8 8 9 9 9 9 9 9 9 9 9 9 8 8 8 8 8 7 7 7 7 6 6 6 5
4 4 4 4 5 5 5 6 6 6 6 6 6 7 7 7 7 7 8 8 8 9 9 9 9 9 9 9 9 8 8 8 8 8 7 7 7 7 6 6 6 5 5
3 4 4 4 4 5 5 6 6 6 6 6 6 6 7 7 7 7 8 8 8 8 9 9 9 9 9 8 8 8 8 8 8 7 7 7 7 6 6 6 5 5 4
3 3 3 4 4 5 5 5 5 6 6 6 6 6 7 7 7 7 8 8 8 8 9 9 9 9 8 8 8 8 8 7 7 7 7 6 6 6 6 5 5 5 4
3 3 3 4 4 4 5 5 5 5 6 6 6 6 7 7 7 7 7 8 8 8 8 8 8 8 8 8 8 8 7 7 7 7 6 6 6 6 5 5 4 4 4
3 3 3 4 4 4 5 5 5 5 5 6 6 6 7 7 7 7 8 8 8 8 8 8 8 8 8 8 8 7 7 7 6 6 6 6 5 5 5 4 4 4 3
2 3 3 3 4 4 5 5 5 5 5 6 6 6 6 6 7 7 7 8 8 8 8 9 9 8 8 8 8 7 7 7 6 6 6 5 5 5 4 4 4 3 3
2 3 3 3 3 4 4 5 5 5 5 6 6 6 6 6 7 7 7 7 8 8 8 8 8 8 8 8 8 8 7 7 6 6 5 5 5 4 4 4 3 3 2
2 2 3 3 3 4 4 4 4 5 5 5 6 6 6 6 7 7 7 7 8 8 7 8 8 8 8 7 7 7 6 6 6 5 5 5 4 4 4 3 3 2 2
2 2 2 2 3 3 3 4 4 4 5 5 6 6 6 7 7 7 7 7 7 7 7 7 7 7 7 7 7 7 7 6 6 5 5 4 4 3 3 3 2 2 2
Wind_Speed
5 5 5 5 6 6 7 7 8 9 9 11 11 12 13 13 13 12 10 14 16 16 16 15 15 15 15 14 13 12 11 10 9 9 8 7 7 7 7 7 7 8 8
5 5 6 6 6 6 7 8 9 9 8 8 11 12 12 12 13 13 12 13 16 16 16 16 16 15 15 15 14 13 12 11 10 10 9 9 8 8 8 8 8 8 8
7 7 6 7 7 7 8 7 8 7 8 8 11 12 11 12 12 13 13 12 14 16 16 16 17 16 16 15 14 13 13 12 11 10 10 9 9 9 9 9 9 9 9
8 7 7 7 7 7 7 7 7 7 8 9 9 10 10 10 13 13 12 12 12 13 15 16 16 16 16 16 15 14 14 13 12 12 11 11 10 10 10 10 10 9 9
9 8 8 7 8 7 7 8 8 8 8 9 9 9 9 10 11 11 13 13 13 13 13 15 16 15 16 16 16 15 15 14 13 13 12 11 11 10 10 10 9 9 10
9 9 8 9 9 7 8 9 10 9 8 8 8 8 9 9 10 11 12 12 12 13 13 14 14 14 15 16 16 15 15 14 14 13 13 12 11 11 10 10 10 10 11
10 9 8 9 9 9 10 11 9 10 8 7 6 6 6 9 11 11 11 11 13 13 13 14 13 12 12 14 15 15 15 14 14 14 13 12 11 11 10 10 11 11 11
11 10 10 9 9 9 11 11 9 8 7 8 7 6 5 6 9 10 10 11 12 11 13 14 14 13 12 11 12 15 15 14 14 13 12 12 12 11 11 10 11 11 10
11 11 12 10 11 11 10 11 12 11 10 9 8 6 6 6 5 8 11 12 12 11 12 12 13 14 14 12 12 14 15 15 14 14 13 12 11 11 10 10 10 10 10
11 11 12 11 11 11 11 12 12 11 12 10 9 8 8 5 5 5 8 11 13 13 13 11 13 13 14 13 12 12 14 14 14 13 13 12 12 11 11 10 10 10 10
12 12 12 11 12 11 12 13 13 13 12 11 9 8 8 7 8 6 7 10 10 11 12 12 11 11 13 13 12 13 14 14 14 13 12 12 11 11 10 10 9 10 9
11 12 12 12 13 11 12 13 13 15 14 14 11 10 9 8 9 8 8 10 10 9 11 10 10 11 11 12 13 13 14 15 14 13 12 11 10 10 10 9 8 8 9
10 12 12 12 13 13 12 13 14 15 15 16 14 12 11 11 9 8 8 8 8 5 7 9 10 10 10 11 11 14 15 15 14 13 11 10 9 9 8 8 7 7 8
11 12 13 13 14 14 13 13 13 14 14 15 15 14 11 11 10 9 8 8 8 6 6 8 8 11 10 10 11 14 13 15 14 13 11 10 9 8 8 7 7 7 7
11 13 13 14 14 14 14 14 13 15 14 14 14 14 12 10 10 9 9 9 9 8 9 7 7 10 10 9 11 12 12 13 14 13 12 10 9 8 7 6 6 6 6
13 13 13 13 14 13 14 14 13 14 15 14 13 15 13 11 10 9 9 9 9 9 8 7 6 7 9 8 10 11 11 12 13 13 12 11 10 8 7 6 6 6 6
13 13 13 13 13 13 13 13 14 15 16 15 15 16 15 13 11 10 10 10 9 9 8 6 5 7 10 10 9 9 9 9 9 12 12 11 10 8 7 7 6 6 5
12 12 12 12 12 13 13 15 14 15 16 16 16 16 16 12 14 12 11 11 10 10 9 8 6 6 9 10 9 9 7 6 7 10 11 10 9 8 7 7 6 5 5
12 12 12 12 12 12 12 14 14 14 15 16 16 16 16 15 15 13 13 12 10 9 9 8 7 6 6 7 8 7 7 6 5 7 9 9 9 8 7 6 5 4 4
11 11 11 11 11 11 11 11 13 13 14 15 15 15 16 17 17 15 13 13 11 11 9 9 8 7 7 7 7 7 6 5 5 4 5 6 7 7 7 5 4 4 4
10 10 10 10 10 10 10 10 11 12 13 14 14 15 15 16 16 14 12 12 12 10 9 9 9 8 7 8 9 7 7 6 4 3 3 4 4 4 5 5 5 4 4
8 8 8 10 10 9 9 10 10 11 12 13 13 13 13 14 14 14 13 13 13 13 13 11 9 11 11 10 9 8 7 6 4 4 3 3 3 3 3 4 3 3 3
8 8 9 9 8 8 8 10 10 10 11 11 12 11 10 12 14 12 11 10 10 11 13 13 12 12 12 12 11 10 9 7 4 5 4 3 3 3 2 2 3 3 2
8 8 8 8 8 7 7 8 10 9 9 10 12 12 12 12 14 13 11 11 11 10 10 10 10 10 10 11 11 10 9 6 4 4 3 2 2 2 1 1 2 2 2
7 7 7 8 7 6 6 7 8 6 6 8 9 11 12 13 15 16 13 12 11 8 7 9 9 9 11 12 11 9 8 7 4 3 2 2 2 1 1 1 1 1 1
6 7 7 7 7 6 6 6 5 4 6 6 7 9 12 13 15 16 14 14 14 11 10 9 9 10 9 10 10 9 9 8 5 3 3 3 3 2 1 1 0 0 1
Wind_Direction
257 252 241 235 232 227 219 214 211 210 212 207 204 204 205 205 203 201 193 189 200 205 207 206 204 202 200 200 201 203 206 210 213 213 216 223 230 239 247 256 264 270 278
253 254 245 237 235 231 224 219 219 212 211 211 208 207 206 206 207 205 202 194 201 208 210 211 208 206 204 205 205 207 209 213 217 220 224 231 237 242 250 259 267 271 276
251 251 246 239 234 233 229 223 221 217 212 212 214 210 207 209 209 208 207 204 203 207 212 213 212 211 211 211 210 211 211 215 219 224 229 235 240 247 253 259 265 270 275
245 249 245 241 235 233 227 223 218 219 214 211 214 212 210 210 213 210 210 210 208 206 207 210 214 215 214 213 213 213 213 216 221 226 232 237 242 248 254 258 263 267 274
244 245 243 241 233 229 227 223 218 218 219 213 213 216 214 211 213 211 212 212 213 211 208 203 210 216 218 218 218 218 219 221 225 228 232 235 242 249 254 258 259 265 273
246 245 241 239 233 226 226 222 221 217 221 215 212 219 220 215 214 213 215 214 213 214 214 209 209 212 214 221 222 223 224 225 227 229 232 235 242 250 254 254 260 266 273
247 243 240 237 232 227 225 222 222 216 215 206 206 217 231 224 219 216 215 215 213 212 215 212 212 212 210 213 219 223 225 225 228 231 232 236 243 249 251 254 260 266 273
247 242 237 235 233 230 226 222 218 217 217 205 202 197 215 225 220 218 215 215 216 211 214 214 212 211 211 211 209 213 221 226 231 233 234 238 244 248 251 257 261 267 274
250 244 239 234 233 228 224 220 214 215 213 213 210 203 206 219 207 209 216 216 214 212 213 214 214 213 212 213 212 210 214 222 229 232 236 240 246 248 253 259 265 270 275
250 244 239 235 234 231 223 221 216 216 213 213 215 223 229 222 205 200 209 215 214 214 213 213 214 213 213 215 214 212 206 216 224 229 234 239 243 247 252 259 267 273 278
251 243 239 234 233 232 224 220 218 214 215 215 215 216 224 227 218 213 208 205 211 213 213 213 213 212 212 214 214 210 200 208 217 225 231 237 241 246 250 258 266 272 278
255 244 238 238 233 231 226 220 220 217 216 217 217 215 218 219 213 215 212 202 208 209 209 211 214 212 210 212 212 199 196 202 210 219 226 232 238 244 250 256 263 270 276
262 247 240 238 236 231 227 223 222 220 218 216 218 217 220 227 226 220 211 204 206 204 208 214 214 212 209 210 207 191 196 200 206 213 218 222 228 237 245 253 260 269 276
262 256 244 240 238 233 229 225 223 222 220 218 219 217 220 223 225 222 214 203 201 212 212 211 207 210 207 206 200 188 200 197 202 208 211 213 217 226 236 243 253 264 274
262 256 250 245 239 232 230 226 224 220 219 219 218 216 218 221 222 223 217 208 206 212 215 209 205 205 200 198 185 195 203 195 199 205 206 207 212 218 227 235 249 261 274
262 258 255 250 241 233 232 225 224 220 218 220 217 215 217 218 217 218 218 216 219 219 219 210 209 195 188 189 186 196 202 186 195 200 202 202 204 210 218 230 244 257 268
262 258 255 252 242 236 230 222 222 218 218 219 217 214 215 215 214 214 215 214 215 216 214 212 206 190 187 188 185 194 195 193 194 196 198 199 201 206 214 228 239 249 262
264 256 255 252 245 239 230 221 221 220 218 217 215 213 212 210 213 214 213 212 211 211 209 203 198 189 192 187 180 185 187 191 192 189 195 198 201 204 214 223 233 242 261
266 257 254 250 245 241 234 224 218 221 219 218 216 215 212 209 212 213 212 210 209 207 204 197 193 183 183 179 176 176 183 185 182 179 187 195 199 202 209 218 225 238 259
268 262 254 251 247 243 237 230 221 222 222 220 217 216 214 211 211 210 211 208 205 203 196 189 183 176 176 175 175 177 184 182 177 174 183 194 194 197 205 210 215 231 257
272 267 259 255 248 242 236 233 226 223 224 221 218 217 215 211 212 211 209 205 200 199 191 186 184 179 177 176 184 183 187 176 174 174 181 188 188 198 203 202 205 230 258
274 272 268 261 250 244 243 241 237 228 226 220 215 214 210 205 206 207 203 201 200 197 194 188 188 188 187 185 181 177 177 170 177 171 184 188 186 196 198 203 201 225 254
277 272 271 266 260 259 253 245 245 238 228 218 211 207 207 202 196 199 192 188 194 195 194 190 188 190 186 182 177 176 180 179 174 156 170 180 178 199 190 189 182 218 253
279 273 271 267 266 269 271 264 251 239 232 218 208 203 199 197 196 191 188 192 193 194 188 185 185 181 178 173 175 175 169 149 115 131 162 176 172 191 177 197 169 210 251
282 278 273 270 270 274 281 278 266 239 230 217 204 197 195 196 188 179 179 180 177 175 160 151 148 141 141 148 154 151 151 150 153 158 167 158 153 164 186 200 143 174 244
285 284 279 278 273 272 277 277 281 244 222 206 200 197 193 189 182 179 181 177 174 170 158 148 138 130 138 140 146 160 162 161 152 159 165 154 143 134 165 187 186 207 254
Height
1466 1467 1468 1470 1471 1472 1474 1476 1478 1480 1482 1484 1485 1487 1489 1491 1492 1494 1495 1497 1499 1500 1502 1503 1504 1505 1506 1507 1507 1508 1509 1509 1509 1509 1509 1509 1509 1508 1508 1507 1507 1506 1505
1460 1461 1462 1464 1465 1467 1468 1470 1472 1475 1476 1478 1480 1482 1484 1486 1488 1490 1491 1493 1495 1497 1498 1500 1501 1502 1503 1504 1505 1506 1506 1507 1507 1507 1507 1507 1507 1506 1506 1505 1504 1504 1503
1454 1455 1456 1458 1459 1461 1463 1464 1466 1469 1471 1473 1474 1476 1479 1481 1483 1485 1487 1489 1491 1492 1494 1496 1497 1499 1500 1501 1502 1503 1503 1504 1505 1505 1505 1505 1504 1504 1503 1503 1502 1501 1500
1448 1449 1450 1451 1453 1455 1456 1458 1460 1462 1464 1467 1469 1471 1473 1476 1478 1480 1482 1484 1486 1488 1490 1492 1494 1495 1497 1498 1499 1500 1500 1501 1502 1502 1502 1502 1502 1501 1501 1500 1499 1498 1497
1442 1442 1443 1445 1447 1448 1450 1452 1454 1456 1459 1461 1463 1465 1467 1470 1472 1475 1477 1479 1481 1483 1485 1487 1489 1491 1493 1494 1495 1496 1497 1498 1498 1499 1499 1499 1499 1498 1498 1497 1496 1495 1494
1435 1436 1437 1438 1440 1441 1443 1445 1448 1450 1453 1455 1458 1460 1462 1464 1467 1468 1471 1474 1476 1478 1480 1482 1484 1486 1488 1490 1491 1493 1493 1494 1495 1495 1495 1495 1495 1495 1494 1494 1493 1491 1490
1428 1430 1430 1431 1433 1435 1436 1439 1441 1444 1446 1449 1453 1455 1457 1458 1460 1463 1465 1468 1470 1473 1475 1477 1479 1481 1483 1485 1487 1488 1489 1490 1491 1491 1492 1492 1491 1491 1491 1490 1489 1488 1487
1422 1422 1423 1424 1426 1428 1430 1432 1434 1437 1439 1443 1446 1449 1452 1455 1453 1456 1459 1462 1465 1467 1469 1472 1474 1476 1478 1480 1482 1484 1485 1486 1487 1488 1488 1488 1488 1487 1487 1486 1485 1484 1483
1415 1416 1417 1418 1419 1421 1422 1424 1427 1430 1432 1436 1439 1442 1445 1446 1448 1450 1452 1455 1459 1461 1463 1466 1469 1471 1473 1475 1477 1478 1480 1482 1483 1484 1484 1484 1484 1484 1483 1482 1481 1480 1479
1408 1408 1409 1411 1412 1414 1414 1416 1419 1422 1425 1428 1432 1434 1439 1439 1442 1443 1447 1449 1452 1455 1458 1461 1463 1465 1468 1470 1472 1473 1475 1477 1478 1479 1480 1480 1480 1480 1479 1478 1477 1476 1474
1400 1401 1402 1403 1404 1406 1406 1409 1411 1414 1418 1421 1424 1427 1431 1433 1435 1437 1439 1442 1446 1448 1451 1454 1457 1460 1463 1465 1466 1468 1470 1472 1473 1474 1475 1475 1475 1475 1475 1474 1473 1472 1470
1393 1393 1394 1395 1397 1398 1399 1401 1404 1407 1410 1413 1417 1420 1423 1426 1428 1431 1433 1435 1439 1442 1445 1448 1451 1454 1457 1459 1461 1463 1465 1467 1469 1470 1470 1471 1471 1471 1471 1470 1468 1467 1466
1385 1385 1386 1388 1389 1390 1392 1394 1396 1399 1402 1405 1408 1412 1417 1420 1424 1426 1428 1430 1433 1436 1439 1442 1445 1448 1451 1454 1456 1458 1460 1462 1464 1465 1466 1466 1466 1466 1466 1465 1464 1463 1461
1377 1378 1379 1380 1381 1382 1384 1386 1389 1391 1394 1397 1401 1404 1408 1413 1417 1420 1422 1425 1428 1430 1432 1434 1438 1442 1445 1448 1450 1453 1455 1457 1459 1460 1461 1461 1462 1462 1461 1460 1459 1458 1457
1371 1371 1371 1372 1373 1374 1375 1378 1380 1383 1386 1390 1393 1397 1401 1405 1409 1413 1416 1419 1422 1424 1427 1428 1432 1435 1439 1442 1445 1447 1450 1452 1454 1455 1456 1456 1457 1457 1457 1456 1455 1454 1452
1364 1363 1363 1363 1364 1365 1367 1369 1372 1375 1378 1381 1385 1389 1394 1398 1402 1405 1409 1412 1416 1419 1420 1422 1426 1429 1433 1436 1439 1442 1445 1447 1448 1450 1451 1452 1452 1452 1452 1452 1450 1449 1448
1356 1355 1355 1355 1355 1356 1358 1360 1363 1366 1370 1374 1377 1381 1386 1390 1394 1398 1402 1406 1409 1413 1415 1417 1421 1424 1428 1431 1434 1437 1439 1441 1443 1445 1446 1447 1448 1448 1448 1447 1446 1445 1443
1349 1348 1348 1347 1348 1349 1351 1352 1355 1358 1362 1366 1369 1373 1377 1382 1386 1391 1395 1399 1403 1406 1409 1411 1415 1418 1422 1426 1429 1432 1434 1437 1438 1440 1441 1442 1443 1443 1443 1443 1442 1441 1439
1342 1342 1341 1341 1341 1342 1343 1344 1347 1351 1354 1358 1361 1365 1369 1374 1378 1383 1387 1392 1396 1400 1403 1406 1409 1412 1416 1421 1424 1427 1429 1432 1434 1435 1437 1438 1438 1439 1439 1438 1437 1436 1435
1336 1335 1335 1335 1335 1335 1336 1338 1341 1344 1347 1350 1353 1356 1360 1365 1369 1374 1379 1384 1389 1393 1397 1400 1403 1407 1411 1415 1419 1421 1424 1427 1429 1431 1432 1433 1434 1434 1435 1434 1433 1432 1431
1330 1330 1329 1329 1330 1330 1331 1332 1334 1337 1339 1342 1344 1348 1351 1356 1361 1367 1372 1376 1381 1386 1390 1393 1396 1401 1405 1409 1412 1416 1419 1422 1424 1426 1427 1429 1430 1430 1430 1430 1429 1428 1427
1325 1325 1324 1324 1324 1325 1325 1327 1328 1330 1332 1333 1336 1339 1344 1349 1355 1360 1365 1369 1375 1379 1383 1386 1390 1394 1398 1403 1407 1410 1414 1416 1419 1422 1423 1424 1426 1426 1426 1426 1425 1425 1424
1321 1320 1319 1320 1319 1319 1320 1321 1323 1324 1324 1326 1329 1333 1337 1342 1348 1353 1358 1363 1368 1373 1377 1381 1384 1388 1393 1397 1401 1405 1409 1412 1414 1416 1419 1420 1422 1422 1423 1423 1422 1421 1420
1317 1316 1316 1316 1315 1314 1315 1316 1317 1317 1318 1320 1323 1327 1331 1336 1342 1347 1352 1357 1362 1366 1371 1376 1380 1384 1389 1393 1397 1401 1405 1409 1411 1413 1416 1417 1418 1419 1419 1419 1419 1418 1417
1314 1313 1312 1312 1310 1309 1310 1311 1311 1311 1312 1314 1317 1322 1326 1331 1336 1341 1347 1351 1356 1361 1367 1372 1377 1381 1385 1390 1394 1398 1401 1404 1407 1410 1412 1414 1415 1415 1416 1416 1416 1416 1415
1311 1310 1309 1308 1307 1306 1306 1306 1307 1307 1307 1309 1312 1317 1322 1326 1331 1336 1341 1346 1351 1356 1362 1368 1373 1377 1382 1386 1391 1395 1397 1400 1403 1406 1408 1410 1411 1412 1413 1414 1414 1413 1412